Flag for Japan Weather past 2 weeks in Kitakyushu, Japan

52 °F

Scattered clouds.

Feels Like: 45 °F
Forecast: 48 / 53 °F
Wind: 23 mph from Northwest

Location: Kitakyushu Airport

Current Time: Nov 26, 2015 at 9:35:19 AM

Latest Report: Nov 26, 2015 at 9:00 AM

Visibility: N/A

Pressure: 29.89 "Hg

Humidity: 62%

Dew point: 39 °F

Location of KitakyushuLocation

Historic Weather in Kitakyushu — Graph


Kitakyushu temperature yesterday

Maximum temperature yesterday: 55 °F (at 12:00 AM)
Minimum temperature yesterday: 54 °F (at 3:00 AM)
Average temperature yesterday: 55 °F

Past Weeks' High & Low Weather Summary

High70 °F (Nov 15, 12:00 PM)100% (Nov 13, 3:00 PM)30.36 "Hg (Nov 13, 3:00 PM)
Low50 °F (Nov 26, 8:00 AM)52% (Nov 12, 10:00 AM)29.83 "Hg (Nov 18, 2:00 PM)
Average62 °F84%30.10 "Hg
* Reported Nov 11 8:00 AM — Nov 26 8:00 AM, Kitakyushu, Weather by CustomWeather, © 2015

Note: Actual official high and low records may vary slightly from our data, if they occured in-between our weather recording intervals... More about our weather records


Kitakyushu weather history for previous 24 hours

Time TempWeatherWind HumidityBarometerVisibility
8:00 AM
Thu, Nov 26
50 °FSprinkles. Broken clouds.18 mph71%29.89 "HgN/A
7:00 AM52 °FSprinkles. Broken clouds.15 mph72%29.86 "HgN/A
6:00 AM52 °FSprinkles. Partly cloudy.12 mph77%29.86 "HgN/A
5:00 AM52 °FSprinkles. Partly cloudy.18 mph77%29.83 "HgN/A
4:00 AM52 °FSprinkles. Partly cloudy.17 mph88%29.83 "HgN/A
3:00 AM54 °FPartly cloudy.18 mph82%29.83 "HgN/A
2:00 AM55 °FSprinkles. Partly cloudy.18 mph77%29.83 "HgN/A
1:00 AM55 °FPassing clouds.17 mph82%29.83 "HgN/A
12:00 AM54 °FSprinkles. Passing clouds.9 mph94%29.86 "HgN/A
11:00 PM
Wed, Nov 25
54 °FSprinkles. Passing clouds.1 mph100%29.89 "HgN/A
10:00 PM54 °FPartly cloudy.2 mph94%29.89 "HgN/A
9:00 PM55 °FPartly cloudy.1 mph88%29.89 "HgN/A
8:00 PM55 °FPassing clouds.3 mph82%29.92 "HgN/A
7:00 PM55 °FPartly cloudy.3 mph88%29.92 "HgN/A
6:00 PM55 °FPartly cloudy.5 mph82%29.92 "HgN/A
5:00 PM55 °FBroken clouds.5 mph82%29.92 "HgN/A
4:00 PM55 °FPartly sunny.6 mph82%29.92 "HgN/A
3:00 PM55 °FBroken clouds.5 mph82%29.92 "HgN/A
2:00 PM55 °FBroken clouds.5 mph82%29.92 "HgN/A
1:00 PM54 °FSprinkles. Broken clouds.7 mph82%29.95 "HgN/A
12:00 PM54 °FSprinkles. Broken clouds.6 mph82%29.98 "HgN/A
11:00 AM55 °FLight rain. Broken clouds.8 mph72%29.98 "HgN/A
10:00 AM55 °FLight rain. Broken clouds.7 mph72%30.01 "HgN/A
9:00 AM55 °FScattered showers. Broken clouds.9 mph67%30.04 "HgN/A
Weather by CustomWeather, © 2015

See weather overviewHow to use our weather pages